THORAD DELTA 1 DEB, 42623

Orbit data source: Space-Track

THORAD DELTA 1 DEB, 42623 is space debris in SSO originally from a launch on Fri, 15 Nov 1974 UTC launched from the Air Force Western Test Range (AFWTR). Debris objects in space refer to the collection of defunct objects orbiting the Earth. Examples of debris include non-operational satellites, rocket bodies, and fragments generated from explosions, collisions, or faulty payload assembly.

Loading next visibility...
Identifier
42623, 1974-089GQ
Orbit
SSO
Country
Flag of USUS
Related business
Manufacturer
Unknown
Mission
Spacecraft
Bus & Motor
Unknown
Mass
Unknown
Launch date (UTC)
1974-11-15 (51 years ago)
Launch vehicle
Unknown
Launch site
Air Force Western Test Range (AFWTR)
Object type
Payload
Rocket body
Debris
Shape & HBR
Unknown shape, 0.1 m
Radar Cross Section
Small (<0.1 m²)

Expand to show TLE details & history
Last TLE update: 1 week ago

TLE from 1 week ago
0 THORAD DELTA 1 DEB
1 42623U 74089GQ  26118.76174640 -.00000027  00000-0  13970-3 0  9991
2 42623 102.2213 131.5941 0071534 272.0267  87.2607 12.43797939226116
Epoch: 2026-04-28T18:16Z
TLE epoch observation values (Epoch: 2026-04-28T18:16:54.888Z)
Latitude
-0.00005°
Longitude
0.633°
Altitude
1,490.801 km
Speed
7.12 km/s
True Right ascension
08h 46m 22s
True Declination
0° 00' 00"
Sunlit
Object was in daylight at epoch
Visualization orbit readout
Latitude
Unknown
Longitude
Unknown
Altitude
Unknown
Speed
Unknown
Apparent Right ascension
Unknown
Apparent Declination
Unknown
Sunlit
N/A
Visualization observer readout
Local Sidereal Time
17:47:16
Azimuth
Unknown
Elevation
Unknown
Doppler factor
Unknown
Orbital elements
Apogee altitude
1,544.398 km
Perigee altitude
1,431.857 km
Semi-major axis
7,866.264 km
Eccentricity
0.00715
Inclination
102.2213°
RAAN
131.5941°
Arg. of periapsis
272.0267°
True anomaly
88.0798°
Mean anomaly
87.2607°
Eccentric anomaly
87.67022°
Mean motion
3.11093 °/min
Orbital period
115.72 mins
BSTAR
0.0001397
Loading maneuver chart data...
Computing Atmospheric mass density...

Documentation

Showing up to 5 results
|